[[{"header":{"parameterUnit":"m.s-1","parameterCategory":1,"la1":30.2991,"la2":30.254,"lo1":-89.0895,"lo2":-89.0444,"dy":0.0017,"dx":0.0017,"nx":28,"ny":28,"refTime":"2025-12-14T09:00:00:Z","depth":0,"parameterNumber":2,"parameterNumberName":"U-component_of_WINDS"},"data":[0,0,0,0,0,0,0,0,0,0,0,0,0,0,0,0,0,0,0,0,0,0,0,0,0,0,0,0,0,0,0,0,0,0,0,0,0,0,0,0,0,0,0,0,0,0,0,0,0,0,0,0,0,0,0,0,0,0,-2.0805,-2.0806,0,-2.091,-2.0911,-2.0912,-2.0888,-2.0886,-2.0884,-2.0882,-2.0988,-2.0992,-2.0997,0,0,0,0,0,0,0,0,0,0,0,0,0,-2.0581,-2.0586,-2.0805,-2.0806,-2.0807,-2.091,-2.0911,-2.0912,-2.0888,-2.0885,-2.0883,-2.0881,-2.0986,-2.0992,-2.0997,0,0,0,0,0,0,0,0,0,0,0,0,0,-2.0682,-2.0587,-2.0804,-2.0807,-2.0809,-2.0909,-2.0911,-2.0913,-2.0888,-2.0885,-2.0882,-2.088,-2.0984,-2.0991,-2.0998,-2.1101,0,0,-2.1019,-2.1022,0,0,0,0,0,0,0,0,-2.0676,-2.069,-2.0806,-2.0807,-2.0809,-2.0882,-2.0871,-2.0976,-2.0889,-2.0858,-2.0882,-2.0878,-2.0955,-2.0964,-2.099,-2.1106,-2.1111,-2.102,-2.1024,-2.1027,-2.1029,0,0,0,0,0,0,0,-2.0669,-2.0685,-2.0846,-2.0807,-2.081,-2.0803,-2.0814,-2.0891,-2.0922,-2.0861,-2.0859,-2.0872,-2.0955,-2.0984,-2.0993,-2.1113,-2.102,-2.1026,-2.103,-2.1033,-2.1318,-2.1321,0,0,0,0,0,0,-2.0661,-2.068,-2.0843,-2.0849,-2.0734,-2.0809,-2.0822,-2.0862,-2.0921,-2.0927,-2.0874,-2.087,-2.0973,-2.0985,-2.0996,-2.1121,-2.1027,-2.1034,-2.1038,-2.1314,-2.1318,-2.1322,0,0,0,0,0,0,-2.0656,-2.0676,-2.0839,-2.0764,-2.0784,-2.0817,-2.0862,-2.0866,-2.0894,-2.0932,-2.0937,-2.0898,-2.0971,-2.0986,-2.1075,-2.1124,-2.1037,-2.1043,-2.131,-2.1316,-2.132,-2.137,0,0,0,0,0,0,-2.065,-2.0674,-2.0714,-2.0765,-2.0788,-2.0917,-2.0865,-2.087,-2.0906,-2.0902,-2.0955,-2.0961,-2.097,-2.1065,-2.1082,-2.1132,-2.1049,-2.1306,-2.1313,-2.1319,-2.1364,-2.1376,-2.1387,0,0,0,0,0,-2.0642,-2.0724,-2.0716,-2.0736,-2.0839,-2.0919,-2.0933,-2.0942,-2.091,-2.0951,-2.0975,-2.0959,-2.1116,-2.1074,-2.1094,-2.1146,-2.1303,-2.1311,-2.1318,-2.1359,-2.1374,-2.1386,0,0,0,0,0,0,-2.0678,-2.0731,-2.0723,-2.0824,-2.0867,-2.0915,-2.0966,-2.0957,-2.101,-2.1004,-2.1013,-2.1025,-2.1116,-2.114,-2.1093,-2.1249,-2.1205,-2.1217,-2.123,-2.1244,-2.1255,-2.1247,-2.1055,0,0,0,0,0,-2.0697,-2.0758,-2.0801,-2.0886,-2.0909,-2.0934,-2.0969,-2.0973,-2.1018,-2.1036,-2.1066,-2.111,-2.1169,-2.1208,-2.1265,-2.1368,-2.1379,-2.1414,-2.1425,-2.1434,-2.1443,-2.1499,-2.1515,-2.1347,-2.1347,-2.1347,0,0,-2.0738,-2.0775,-2.0813,-2.0895,-2.0929,-2.0991,-2.0949,-2.1017,-2.1063,-2.1046,-2.1132,-2.1156,-2.1205,-2.1302,-2.1346,-2.1325,-2.1492,-2.1443,-2.145,-2.1455,-2.1508,-2.1524,-2.1538,-2.1352,-2.1351,-2.135,0,0,-2.0845,-2.0879,-2.0953,-2.0988,-2.1041,-2.1057,-2.1075,-2.1124,-2.1139,-2.1226,-2.1214,-2.1268,-2.137,-2.1406,-2.1437,-2.1557,-2.1545,-2.1576,-2.1633,-2.1687,-2.17,-2.1712,-2.1754,-2.1769,-2.1585,-2.1586,-2.1586,0,-2.0889,-2.0983,-2.0992,-2.1062,-2.1097,-2.1085,-2.116,-2.1193,-2.1261,-2.1286,-2.1261,-2.1389,-2.1421,-2.1525,-2.1555,-2.1581,-2.1601,-2.1569,-2.1698,-2.171,-2.1721,-2.1761,-2.1777,-2.1589,-2.1588,-2.1588,-2.1588,0,-2.1035,-2.11,-2.1154,-2.122,-2.1262,-2.1333,-2.1353,-2.1394,-2.1394,-2.1412,-2.15,-2.1539,-2.1603,-2.1628,-2.1628,-2.1732,-2.1717,-2.1696,-2.1651,-2.174,-2.1778,-2.1793,-2.1594,-2.1592,-2.1591,-2.1591,0,0,-2.1166,-2.1236,-2.1256,-2.1285,-2.1342,-2.1392,-2.1463,-2.1526,-2.156,-2.1608,-2.1667,-2.1753,-2.1733,-2.1769,-2.1774,-2.1821,-2.1913,-2.1794,-2.1795,-2.1813,-2.2028,-2.2043,-2.2061,-2.1905,-2.1908,-2.191,-2.2023,0,-2.1277,-2.1402,-2.1412,-2.1524,-2.1584,-2.1573,-2.1635,-2.1676,-2.1695,-2.1748,-2.1769,-2.183,-2.18,-2.1821,-2.1868,-2.1892,-2.1956,-2.1884,-2.1959,-2.1961,-2.1946,-2.2081,-2.2097,-2.2202,-2.2038,-2.2041,-2.2043,0,-2.1423,-2.1474,-2.1593,-2.164,-2.1666,-2.1721,-2.1779,-2.183,-2.1876,-2.1887,-2.1927,-2.1925,-2.1997,-2.1951,-2.205,-2.2,-2.2032,-2.2048,-2.2053,-2.2059,-2.2007,-2.209,-2.2236,-2.2251,-2.2066,-2.2064,-2.2063,0,-2.1505,-2.1605,-2.1688,-2.1714,-2.1772,-2.181,-2.1836,-2.1879,-2.1916,-2.1967,-2.1991,-2.2049,-2.2081,-2.2126,-2.2139,-2.2105,-2.2238,-2.2193,-2.2248,-2.2247,-2.2275,-2.2273,-2.2427,-2.2297,-2.2297,-2.2297,-2.2296,0,-2.1627,-2.17,-2.1726,-2.1777,-2.1857,-2.1868,-2.1948,-2.1971,-2.201,-2.2065,-2.2059,-2.2111,-2.2126,-2.218,-2.2191,-2.2271,-2.2286,-2.2296,-2.2297,-2.2296,-2.2294,-2.2315,-2.2308,-2.2301,-2.23,-2.2299,-2.2299,0,-2.1733,-2.1753,-2.1843,-2.1891,-2.1904,-2.1961,-2.2002,-2.2051,-2.2069,-2.2139,-2.2156,-2.2184,-2.2248,-2.2266,-2.2342,-2.235,-2.2443,-2.2439,-2.2427,-2.2427,-2.248,-2.2475,-2.2653,-2.2676,-2.2532,-2.2533,-2.2535,0,-2.1809,-2.1864,-2.1918,-2.1954,-2.1982,-2.2041,-2.2078,-2.2091,-2.2131,-2.2187,-2.2229,-2.2292,-2.2343,-2.2445,-2.2472,-2.253,-2.2527,-2.2585,-2.2535,-2.2531,-2.2526,-2.2522,-2.2527,-2.2594,-2.2596,-2.2597,-2.2598,0,-2.1941,-2.1949,-2.2003,-2.2061,-2.2106,-2.2153,-2.2197,-2.2228,-2.2247,-2.2291,-2.2356,-2.2396,-2.2473,-2.2535,-2.2594,-2.262,-2.2612,-2.2613,-2.2629,-2.2627,-2.2618,-2.2622,-2.2452,-2.2609,-2.2608,-2.2607,-2.2606,-2.2606,-2.2034,-2.2082,-2.2127,-2.2188,-2.2223,-2.2265,-2.2313,-2.2337,-2.2392,-2.2456,-2.246,-2.253,-2.2575,-2.2653,-2.2682,-2.2737,-2.272,-2.2742,-2.2748,-2.2753,-2.2757,-2.261,-2.2748,-2.2747,-2.2747,-2.2747,-2.2747,0,-2.2165,-2.2194,-2.2249,-2.2312,-2.2359,-2.2348,-2.2397,-2.2437,-2.2499,-2.2541,-2.2591,-2.2666,-2.2726,-2.2758,-2.2818,-2.2855,-2.2853,-2.287,-2.2867,-2.2873,-2.277,-2.275,-2.2871,-2.2871,-2.2871,-2.2871,-2.2871,-2.2871,-2.2239,-2.232,-2.2333,-2.243,-2.2458,-2.2527,-2.2556,-2.2594,-2.2627,-2.2711,-2.2761,-2.2781,-2.2819,-2.2882,-2.2936,-2.2944,-2.2966,-2.2985,-2.2991,-2.2893,-2.2881,-2.2868,-2.285,-2.299,-2.299,-2.309,-2.3091,-2.3091]},{"header":{"parameterUnit":"m.s-1","parameterCategory":1,"la1":30.2991,"la2":30.254,"lo1":-89.0895,"lo2":-89.0444,"dy":0.0017,"dx":0.0017,"nx":28,"ny":28,"refTime":"2025-12-14T09:00:00:Z","depth":0,"parameterNumber":3,"parameterNumberName":"V-component_of_WINDS"},"data":[0,0,0,0,0,0,0,0,0,0,0,0,0,0,0,0,0,0,0,0,0,0,0,0,0,0,0,0,0,0,0,0,0,0,0,0,0,0,0,0,0,0,0,0,0,0,0,0,0,0,0,0,0,0,0,0,0,0,-0.9141,-0.9142,0,-0.9181,-0.9182,-0.9182,-0.9214,-0.9215,-0.9215,-0.9215,-0.9258,-0.9259,-0.926,0,0,0,0,0,0,0,0,0,0,0,0,0,-0.9094,-0.9094,-0.9141,-0.9142,-0.9142,-0.9181,-0.9182,-0.9182,-0.9214,-0.9215,-0.9215,-0.9216,-0.9258,-0.9259,-0.926,0,0,0,0,0,0,0,0,0,0,0,0,0,-0.9122,-0.9095,-0.9141,-0.9163,-0.9165,-0.9181,-0.9182,-0.9182,-0.9214,-0.9215,-0.9215,-0.9216,-0.9257,-0.9259,-0.926,-0.9258,0,0,-0.9264,-0.9264,0,0,0,0,0,0,0,0,-0.912,-0.9124,-0.9159,-0.9161,-0.9164,-0.9193,-0.9181,-0.9208,-0.9214,-0.9196,-0.9215,-0.9216,-0.9236,-0.9239,-0.9246,-0.926,-0.9261,-0.9264,-0.9264,-0.9265,-0.9265,0,0,0,0,0,0,0,-0.9118,-0.9122,-0.9157,-0.916,-0.9163,-0.9171,-0.9176,-0.9186,-0.9213,-0.9197,-0.92,-0.9204,-0.9238,-0.9244,-0.9247,-0.9262,-0.9264,-0.9265,-0.9265,-0.9266,-0.9276,-0.9276,0,0,0,0,0,0,-0.9113,-0.912,-0.9156,-0.9158,-0.9143,-0.9171,-0.9177,-0.9183,-0.9213,-0.9218,-0.9203,-0.9205,-0.9242,-0.9245,-0.9248,-0.9248,-0.9265,-0.9266,-0.9267,-0.9277,-0.9276,-0.9276,0,0,0,0,0,0,-0.9112,-0.9116,-0.9154,-0.914,-0.9145,-0.9172,-0.9179,-0.9184,-0.9191,-0.9217,-0.9222,-0.9205,-0.9242,-0.9247,-0.9255,-0.925,-0.9267,-0.9268,-0.9277,-0.9276,-0.9276,-0.9246,0,0,0,0,0,0,-0.911,-0.9115,-0.9114,-0.914,-0.9146,-0.9159,-0.9179,-0.9184,-0.9193,-0.9195,-0.922,-0.9225,-0.9243,-0.9253,-0.9256,-0.9252,-0.9269,-0.9278,-0.9277,-0.9276,-0.9247,-0.9244,-0.9241,0,0,0,0,0,-0.9108,-0.9105,-0.9114,-0.9118,-0.9145,-0.9159,-0.9163,-0.9183,-0.9192,-0.9192,-0.9209,-0.9224,-0.925,-0.9253,-0.9257,-0.9253,-0.9278,-0.9277,-0.9276,-0.9249,-0.9245,-0.9242,0,0,0,0,0,0,-0.9078,-0.9108,-0.9119,-0.9123,-0.9138,-0.9164,-0.9164,-0.9178,-0.9192,-0.9194,-0.9219,-0.9224,-0.923,-0.9243,-0.9246,-0.9253,-0.9266,-0.9266,-0.9244,-0.924,-0.9237,-0.9234,-0.927,0,0,0,0,0,-0.9072,-0.908,-0.9106,-0.9107,-0.9114,-0.9138,-0.9145,-0.9159,-0.9176,-0.9182,-0.92,-0.9216,-0.9228,-0.9235,-0.9247,-0.925,-0.9256,-0.9249,-0.9246,-0.9243,-0.9242,-0.9244,-0.9241,-0.9272,-0.9272,-0.9272,0,0,-0.906,-0.9077,-0.9081,-0.9102,-0.9115,-0.9123,-0.9143,-0.9151,-0.9157,-0.9184,-0.9192,-0.9206,-0.9226,-0.9231,-0.9234,-0.9241,-0.9235,-0.9242,-0.9239,-0.924,-0.9243,-0.924,-0.9237,-0.9271,-0.9271,-0.9272,0,0,-0.9041,-0.9055,-0.9057,-0.907,-0.9089,-0.9105,-0.9106,-0.913,-0.9139,-0.9148,-0.9168,-0.9177,-0.9196,-0.9209,-0.9218,-0.9204,-0.9219,-0.9207,-0.9191,-0.9193,-0.9191,-0.9189,-0.9183,-0.9181,-0.9207,-0.9206,-0.9206,0,-0.9023,-0.9035,-0.9057,-0.9063,-0.9072,-0.9096,-0.9098,-0.911,-0.9133,-0.9138,-0.9146,-0.9171,-0.9186,-0.9194,-0.9191,-0.9197,-0.9199,-0.9204,-0.9189,-0.9187,-0.9186,-0.9181,-0.9179,-0.9205,-0.9205,-0.9205,-0.9205,0,-0.9012,-0.902,-0.902,-0.904,-0.9049,-0.9054,-0.9076,-0.9082,-0.9096,-0.9111,-0.912,-0.9139,-0.9155,-0.9158,-0.9172,-0.9168,-0.9172,-0.9184,-0.9198,-0.9181,-0.9177,-0.9175,-0.9203,-0.9203,-0.9204,-0.9204,0,0,-0.8975,-0.9007,-0.9006,-0.9016,-0.9039,-0.9046,-0.9052,-0.9067,-0.9072,-0.9087,-0.9093,-0.9108,-0.912,-0.913,-0.9145,-0.9147,-0.9134,-0.9159,-0.916,-0.9153,-0.9131,-0.9121,-0.9119,-0.9144,-0.9144,-0.9143,-0.9129,0,-0.8959,-0.897,-0.8989,-0.8994,-0.9002,-0.9025,-0.903,-0.9045,-0.9059,-0.9068,-0.9084,-0.9095,-0.9109,-0.9115,-0.9118,-0.9135,-0.913,-0.9136,-0.9149,-0.9149,-0.9143,-0.9116,-0.9106,-0.9092,-0.9128,-0.9127,-0.9127,0,-0.8942,-0.8955,-0.896,-0.8983,-0.8987,-0.8991,-0.9006,-0.9015,-0.9032,-0.9042,-0.9054,-0.907,-0.9078,-0.9091,-0.9102,-0.9106,-0.9112,-0.9121,-0.9121,-0.9123,-0.9137,-0.9117,-0.9088,-0.9085,-0.9125,-0.9125,-0.9125,0,-0.8914,-0.8933,-0.8938,-0.8946,-0.8972,-0.8974,-0.8986,-0.9004,-0.9012,-0.9025,-0.9031,-0.9045,-0.9053,-0.9064,-0.9085,-0.9092,-0.9093,-0.9108,-0.9102,-0.9101,-0.9101,-0.91,-0.9071,-0.9106,-0.9106,-0.9106,-0.9106,0,-0.8894,-0.8896,-0.8926,-0.8929,-0.8932,-0.8955,-0.8957,-0.8971,-0.8987,-0.8993,-0.9015,-0.902,-0.9047,-0.9056,-0.9072,-0.9079,-0.9082,-0.9091,-0.9095,-0.9089,-0.9087,-0.9093,-0.9094,-0.9105,-0.9105,-0.9105,-0.9105,0,-0.8863,-0.8883,-0.889,-0.8914,-0.8921,-0.8922,-0.8943,-0.8947,-0.8963,-0.8971,-0.8974,-0.8998,-0.901,-0.9031,-0.9049,-0.906,-0.9063,-0.907,-0.9057,-0.9059,-0.9052,-0.9052,-0.9025,-0.9023,-0.9058,-0.9058,-0.9058,0,-0.8849,-0.8851,-0.8875,-0.8881,-0.8891,-0.89,-0.8908,-0.893,-0.8938,-0.8958,-0.896,-0.8973,-0.8985,-0.9002,-0.9022,-0.9036,-0.9044,-0.9033,-0.9046,-0.9039,-0.9043,-0.9042,-0.9043,-0.903,-0.903,-0.9029,-0.9029,0,-0.8821,-0.883,-0.8841,-0.8854,-0.8863,-0.8875,-0.8888,-0.8892,-0.8918,-0.8925,-0.8937,-0.8946,-0.8964,-0.8977,-0.8994,-0.9006,-0.9022,-0.9025,-0.9024,-0.9017,-0.9009,-0.9013,-0.9048,-0.9025,-0.9026,-0.9026,-0.9026,-0.9026,-0.8797,-0.88,-0.8817,-0.8828,-0.884,-0.8852,-0.8857,-0.8873,-0.8883,-0.8899,-0.8912,-0.8923,-0.8941,-0.8965,-0.8976,-0.8985,-0.8992,-0.8991,-0.8991,-0.899,-0.8988,-0.9008,-0.8988,-0.8988,-0.8988,-0.8989,-0.8989,0,-0.877,-0.8783,-0.8792,-0.881,-0.8818,-0.8832,-0.8847,-0.8853,-0.8862,-0.8877,-0.8888,-0.8902,-0.8915,-0.8935,-0.8949,-0.8953,-0.896,-0.8956,-0.8956,-0.8958,-0.898,-0.8979,-0.8949,-0.8949,-0.8949,-0.8949,-0.8949,-0.8949,-0.8757,-0.8762,-0.8774,-0.8786,-0.8798,-0.8808,-0.8816,-0.8827,-0.8839,-0.8853,-0.8863,-0.8876,-0.8894,-0.8909,-0.8922,-0.8927,-0.8932,-0.8925,-0.8932,-0.8953,-0.8956,-0.896,-0.8959,-0.8925,-0.8925,-0.8909,-0.8909,-0.8909]}]]